timestamp,surface_pressure_avg,surface_temp_avg,battery_voltage,lat,long
2018-02-13 00:00:00+00:00,277.6464,1.3,12.25,47.84626,-54.09684
2018-02-13 00:10:00+00:00,269.2547,1.26,12.25,47.84626,-54.09684
2018-02-13 00:20:00+00:00,267.6797,1.22,12.33,47.84626,-54.09684
2018-02-13 00:30:00+00:00,271.0847,1.24,12.33,47.84626,-54.09684
2018-02-13 00:40:00+00:00,266.5481,1.2,12.33,47.84626,-54.09684
2018-02-13 00:50:00+00:00,265.7764,1.24,12.33,47.84626,-54.09684
2018-02-13 01:00:00+00:00,260.8497,1.3,12.25,47.84626,-54.09684
2018-02-13 01:10:00+00:00,250.7513,1.2,12.25,47.84626,-54.09684
2018-02-13 01:20:00+00:00,235.7147,1.2,12.33,47.84626,-54.09684
2018-02-13 01:30:00+00:00,230.0265,1.2,12.33,47.84626,-54.09684
2018-02-13 01:40:00+00:00,225.5564,1.2,12.33,47.84626,-54.09684
2018-02-13 01:50:00+00:00,218.1165,1.2,12.33,47.84626,-54.09684
2018-02-13 02:00:00+00:00,209.9181,1.19,12.25,47.84626,-54.09684
2018-02-13 02:10:00+00:00,204.9898,1.3,12.25,47.84626,-54.09684
2018-02-13 02:20:00+00:00,206.1464,1.3,12.33,47.84626,-54.09684
2018-02-13 02:30:00+00:00,207.9098,1.3,12.33,47.84626,-54.09684
2018-02-13 02:40:00+00:00,199.8081,1.2,12.33,47.84626,-54.09684
2018-02-13 02:50:00+00:00,193.9064,1.0,12.33,47.84626,-54.09684
2018-02-13 03:00:00+00:00,193.2531,1.14,12.25,47.84626,-54.09684
2018-02-13 03:10:00+00:00,187.9998,1.3,12.25,47.84626,-54.09684
2018-02-13 03:20:00+00:00,185.5414,1.36,12.33,47.84626,-54.09684
2018-02-13 03:30:00+00:00,187.7048,1.35,12.33,47.84626,-54.09684
2018-02-13 03:40:00+00:00,182.8431,1.3,12.33,47.84626,-54.09684
2018-02-13 03:50:00+00:00,174.2015,1.3,12.33,47.84626,-54.09684
2018-02-13 04:00:00+00:00,179.8848,1.28,12.25,47.84626,-54.09684
2018-02-13 04:10:00+00:00,189.3315,1.2,12.25,47.84626,-54.09684
2018-02-13 04:20:00+00:00,179.4848,1.2,12.33,47.84626,-54.09684
2018-02-13 04:30:00+00:00,174.2365,1.2,12.33,47.84626,-54.09684
2018-02-13 04:40:00+00:00,184.7964,1.2,12.33,47.84626,-54.09684
2018-02-13 04:50:00+00:00,188.0048,1.2,12.33,47.84626,-54.09684
2018-02-13 05:00:00+00:00,186.0215,1.2,12.25,47.84626,-54.09684
2018-02-13 05:10:00+00:00,192.2181,1.2,12.25,47.84626,-54.09684
2018-02-13 05:20:00+00:00,201.5464,1.19,12.33,47.84626,-54.09684
2018-02-13 05:30:00+00:00,201.1447,1.1,12.33,47.84626,-54.09684
2018-02-13 05:40:00+00:00,204.0548,1.1,12.33,47.84626,-54.09684
2018-02-13 05:50:00+00:00,217.5131,1.1,12.33,47.84626,-54.09684
2018-02-13 06:00:00+00:00,219.3448,1.1,12.25,47.84626,-54.09684
2018-02-13 06:10:00+00:00,219.1381,1.1,12.25,47.84626,-54.09684
2018-02-13 06:20:00+00:00,229.2347,1.1,12.33,47.84626,-54.09684
2018-02-13 06:30:00+00:00,240.1281,1.18,12.33,47.84626,-54.09684
2018-02-13 06:40:00+00:00,240.6431,1.3,12.33,47.84626,-54.09684
2018-02-13 06:50:00+00:00,238.5881,1.26,12.33,47.84626,-54.09684
2018-02-13 07:00:00+00:00,254.8448,1.2,12.25,47.84626,-54.09684
2018-02-13 07:10:00+00:00,266.9314,1.2,12.25,47.84626,-54.09684
2018-02-13 07:20:00+00:00,262.7664,1.24,12.33,47.84626,-54.09684
2018-02-13 07:30:00+00:00,264.5981,1.24,12.25,47.84626,-54.09684
2018-02-13 07:40:00+00:00,281.8797,1.22,12.33,47.84626,-54.09684
2018-02-13 07:50:00+00:00,286.1147,1.29,12.33,47.84626,-54.09684
2018-02-13 08:00:00+00:00,279.8797,1.3,12.25,47.84626,-54.09684
2018-02-13 08:10:00+00:00,290.7681,1.3,12.25,47.84626,-54.09684
2018-02-13 08:20:00+00:00,304.778,1.3,12.25,47.84626,-54.09684
2018-02-13 08:30:00+00:00,308.6314,1.3,12.25,47.84626,-54.09684
2018-02-13 08:40:00+00:00,314.1329,1.3,12.33,47.84626,-54.09684
2018-02-13 08:50:00+00:00,325.8997,1.3,12.33,47.84626,-54.09684
2018-02-13 09:00:00+00:00,330.7613,1.4,12.25,47.84626,-54.09684
2018-02-13 09:10:00+00:00,332.5647,1.3,12.25,47.84626,-54.09684
2018-02-13 09:20:00+00:00,341.7963,1.3,12.25,47.84626,-54.09684
2018-02-13 09:30:00+00:00,343.1796,1.4,12.25,47.84626,-54.09684
2018-02-13 09:40:00+00:00,339.4529,1.3,12.33,47.84626,-54.09684
2018-02-13 09:50:00+00:00,343.2296,1.3,12.33,47.84626,-54.09684
2018-02-13 10:00:00+00:00,344.7646,1.4,12.25,47.84626,-54.09684
2018-02-13 10:10:00+00:00,347.7847,1.47,12.25,47.84626,-54.09684
2018-02-13 10:20:00+00:00,350.5913,1.4,12.25,47.84626,-54.09684
2018-02-13 10:30:00+00:00,351.9279,1.37,12.25,47.84626,-54.09684
2018-02-13 10:40:00+00:00,352.2363,1.46,12.33,47.84626,-54.09684
2018-02-13 10:50:00+00:00,346.1462,1.47,12.33,47.84626,-54.09684
2018-02-13 11:00:00+00:00,349.688,1.4,12.25,47.84626,-54.09684
2018-02-13 11:10:00+00:00,348.7413,1.4,12.25,47.84626,-54.09684
2018-02-13 11:20:00+00:00,345.083,1.4,12.33,47.84626,-54.09684
2018-02-13 11:30:00+00:00,343.3746,1.37,12.33,47.84626,-54.09684
2018-02-13 11:40:00+00:00,339.2163,1.3,12.33,47.84626,-54.09684
2018-02-13 11:50:00+00:00,330.4247,1.4,12.33,47.84626,-54.09684
2018-02-13 12:00:00+00:00,324.7147,1.3,12.25,47.84626,-54.09684
2018-02-13 12:10:00+00:00,324.4864,1.3,12.25,47.84626,-54.09684
2018-02-13 12:20:00+00:00,318.1046,1.2,12.41,47.84626,-54.09684
2018-02-13 12:30:00+00:00,311.1414,1.1,12.41,47.84626,-54.09684
2018-02-13 12:40:00+00:00,309.8597,1.05,12.41,47.84626,-54.09684
2018-02-13 12:50:00+00:00,302.8797,1.0,12.41,47.84626,-54.09684
2018-02-13 13:00:00+00:00,290.9897,1.0,12.41,47.84626,-54.09684
2018-02-13 13:10:00+00:00,293.0314,1.0,12.41,47.84626,-54.09684
2018-02-13 13:20:00+00:00,296.9048,1.07,12.41,47.84626,-54.09684
2018-02-13 13:30:00+00:00,287.6364,1.02,12.41,47.84626,-54.09684
2018-02-13 13:40:00+00:00,279.2681,1.05,12.49,47.84626,-54.09684
2018-02-13 13:50:00+00:00,281.993,1.02,12.49,47.84626,-54.09684
2018-02-13 14:00:00+00:00,280.9897,1.08,12.49,47.84626,-54.09684
2018-02-13 14:10:00+00:00,270.4564,1.0,12.65,47.84626,-54.09684
2018-02-13 14:20:00+00:00,266.6047,1.0,12.97,47.84626,-54.09684
2018-02-13 14:30:00+00:00,266.0898,1.1,12.81,47.84626,-54.09684
2018-02-13 14:40:00+00:00,265.3148,1.1,12.97,47.84626,-54.09684
2018-02-13 14:50:00+00:00,253.3998,1.17,13.29,47.84626,-54.09684
2018-02-13 15:00:00+00:00,250.6998,1.12,13.29,47.84626,-54.09684
2018-02-13 15:10:00+00:00,249.1814,1.15,13.37,47.84626,-54.09684
2018-02-13 15:20:00+00:00,241.1331,1.07,13.29,47.84626,-54.09684
2018-02-13 15:30:00+00:00,233.2581,1.09,12.97,47.84626,-54.09684
2018-02-13 15:40:00+00:00,234.9414,1.1,13.05,47.84626,-54.09684
2018-02-13 15:50:00+00:00,228.9964,1.1,12.97,47.84626,-54.09684
2018-02-13 16:00:00+00:00,220.6781,1.08,13.13,47.84626,-54.09684
2018-02-13 16:10:00+00:00,222.6148,1.05,13.29,47.84626,-54.09684
2018-02-13 16:20:00+00:00,223.4414,1.17,13.37,47.84626,-54.09684
2018-02-13 16:30:00+00:00,220.0031,1.4,12.97,47.84626,-54.09684
2018-02-13 16:40:00+00:00,222.8964,1.2,12.89,47.84626,-54.09684
2018-02-13 16:50:00+00:00,225.3831,1.2,12.97,47.84626,-54.09684
2018-02-13 17:00:00+00:00,220.5281,1.33,13.21,47.84626,-54.09684
2018-02-13 17:10:00+00:00,217.4398,1.33,12.89,47.84626,-54.09684
2018-02-13 17:20:00+00:00,223.7864,1.3,12.89,47.84626,-54.09684
2018-02-13 17:30:00+00:00,228.7131,1.33,12.89,47.84626,-54.09684
2018-02-13 17:40:00+00:00,225.1264,1.39,12.97,47.84626,-54.09684
2018-02-13 17:50:00+00:00,224.6881,1.3,12.97,47.84626,-54.09684
2018-02-13 18:00:00+00:00,231.1031,1.3,12.81,47.84626,-54.09684
2018-02-13 18:10:00+00:00,234.4831,1.4,12.81,47.84626,-54.09684
2018-02-13 18:20:00+00:00,232.8597,1.4,12.81,47.84626,-54.09684
2018-02-13 18:30:00+00:00,236.4548,1.4,12.89,47.84626,-54.09684
2018-02-13 18:40:00+00:00,245.5831,1.4,12.81,47.84626,-54.09684
2018-02-13 18:50:00+00:00,244.8381,1.38,12.97,47.84626,-54.09684
2018-02-13 19:00:00+00:00,242.7281,1.37,12.97,47.84626,-54.09684
2018-02-13 19:10:00+00:00,251.6764,1.4,12.89,47.84626,-54.09684
2018-02-13 19:20:00+00:00,258.4431,1.4,12.89,47.84626,-54.09684
2018-02-13 19:30:00+00:00,259.1164,1.4,12.89,47.84626,-54.09684
2018-02-13 19:40:00+00:00,268.8897,1.46,12.89,47.84626,-54.09684
2018-02-13 19:50:00+00:00,279.7347,1.4,12.81,47.84626,-54.09684
2018-02-13 20:00:00+00:00,279.813,1.42,12.73,47.84626,-54.09684
2018-02-13 20:10:00+00:00,279.8097,1.21,12.73,47.84626,-54.09684
2018-02-13 20:20:00+00:00,294.383,1.47,12.73,47.84626,-54.09684
2018-02-13 20:30:00+00:00,302.0064,1.48,12.73,47.84626,-54.09684
2018-02-13 20:40:00+00:00,299.9531,1.48,12.73,47.84626,-54.09684
2018-02-13 20:50:00+00:00,305.793,1.49,12.73,47.84626,-54.09684
2018-02-13 21:00:00+00:00,316.8097,1.48,12.65,47.84626,-54.09684
2018-02-13 21:10:00+00:00,315.858,1.48,12.65,47.84626,-54.09684
2018-02-13 21:20:00+00:00,314.8147,1.36,12.73,47.84626,-54.09684
2018-02-13 21:30:00+00:00,326.3296,1.4,12.65,47.84626,-54.09684
2018-02-13 21:40:00+00:00,334.9514,1.4,12.73,47.84626,-54.09684
2018-02-13 21:50:00+00:00,330.4862,1.4,12.73,47.84626,-54.09684
2018-02-13 22:00:00+00:00,326.0098,1.41,12.65,47.84626,-54.09684
2018-02-13 22:10:00+00:00,333.2146,1.5,12.65,47.84626,-54.09684
2018-02-13 22:20:00+00:00,334.9464,1.5,12.65,47.84626,-54.09684
2018-02-13 22:30:00+00:00,331.6046,1.5,12.65,47.84626,-54.09684
2018-02-13 22:40:00+00:00,333.328,1.5,12.65,47.84626,-54.09684
2018-02-13 22:50:00+00:00,339.838,1.5,12.65,47.84626,-54.09684
2018-02-13 23:00:00+00:00,341.0047,1.5,12.57,47.84626,-54.09684
2018-02-13 23:10:00+00:00,339.8646,1.5,12.57,47.84626,-54.09684
2018-02-13 23:20:00+00:00,341.8663,1.5,12.65,47.84626,-54.09684
2018-02-13 23:30:00+00:00,343.5213,1.5,12.65,47.84626,-54.09684
2018-02-13 23:40:00+00:00,343.7046,1.5,12.65,47.84626,-54.09684
2018-02-13 23:50:00+00:00,342.278,1.5,12.65,47.84626,-54.09684
